Plymouth, MA

4:32 AM EST on December 12, 2017 (GMT -0500)
Plymouth Municipal

Weather History for KPYM - October, 2011

Change the Weather History Date:

Thursday, October 13, 2011

  Actual Average Record
Temperature  
Mean Temperature 64 °F -  
Max Temperature 70 °F 63 °F 86 °F (1954)
Min Temperature 60 °F 41 °F 27 °F (1981)
Growing Degree Days 14 (Base 50)    
Moisture  
Dew Point 61 °F    
Average Humidity 90    
Maximum Humidity 94    
Minimum Humidity 87    
Precipitation  
Precipitation 1.10 in - - ()
Sea Level Pressure  
Sea Level Pressure 29.83 in    
Wind  
Wind Speed 8 mph (NE)    
Max Wind Speed 14 mph    
Max Gust Speed 22 mph    
Visibility 4 miles    
Events Rain    
Averages and records for this station are not official NWS values.
T = Trace of Precipitation, MM = Missing Value Source: NWS Daily Summary

Daily Weather History Graph

Daily Weather History Graph

Search for Another Location

Airport or City:

Trip Planner

Search our weather history database for the weather conditions in past years. The results will help you decide how hot, cold, wet, or windy it might be!

Date:

Astronomy

Oct. 13, 2011 Rise Set
Actual Time 6:52 AM EDT 6:05 PM EDT
Civil Twilight 6:24 AM EDT 6:33 PM EDT
Nautical Twilight 5:52 AM EDT 7:05 PM EDT
Astronomical Twilight 5:20 AM EDT 7:37 PM EDT
Moon 6:36 PM EDT (10/13) 8:24 AM EDT (10/13)
Length of Visible Light 12h 08m
Length of Day
11h 12m
Full, 98% of the Moon is Illuminated
Oct 13
Full
Oct 19
Last Quarter
Oct 26
New
Nov 2
First Quarter
Nov 10
Full

Hourly Weather History & Observations

Time (EDT) Temp. Dew Point Humidity Pressure Visibility Wind Dir Wind Speed Gust Speed Precip Events Conditions
1:52 AM 60.1 °F 57.0 °F 90% 30.01 in 4.0 mi East 11.5 mph - 0.04 in Rain Light Rain
2:52 AM 60.1 °F 57.0 °F 90% 29.98 in 5.0 mi East 10.4 mph - 0.03 in Rain Light Rain
3:52 AM 61.0 °F 57.9 °F 90% 29.95 in 2.5 mi East 9.2 mph - 0.04 in Rain Rain
4:04 AM 60.8 °F 57.2 °F 88% 29.95 in 3.0 mi East 9.2 mph - 0.02 in Rain Light Rain
4:52 AM 61.0 °F 57.9 °F 90% 29.93 in 2.0 mi East 11.5 mph - 0.11 in Rain Heavy Rain
5:09 AM 60.8 °F 57.2 °F 88% 29.92 in 3.0 mi East 10.4 mph - 0.08 in Rain Heavy Rain
5:52 AM 61.0 °F 57.9 °F 90% 29.89 in 6.0 mi ENE 8.1 mph - 0.21 in Rain Rain
6:52 AM 62.1 °F 59.0 °F 90% 29.88 in 10.0 mi ENE 10.4 mph 17.3 mph 0.08 in Rain Light Rain
7:52 AM 62.1 °F 59.0 °F 90% 29.90 in 3.0 mi ENE 4.6 mph - 0.11 in Rain Heavy Rain
7:57 AM 62.6 °F 59.0 °F 88% 29.89 in 2.5 mi ENE 8.1 mph - 0.05 in Rain Heavy Rain
8:16 AM 62.6 °F 59.0 °F 88% 29.89 in 3.0 mi ENE 8.1 mph - 0.18 in Rain Heavy Rain
8:50 AM 62.6 °F 60.8 °F 94% 29.85 in 2.5 mi East 13.8 mph 21.9 mph 0.37 in Rain Heavy Rain
8:52 AM 63.0 °F 60.1 °F 90% 29.85 in 2.5 mi East 13.8 mph 21.9 mph 0.38 in Rain Heavy Rain
9:05 AM 62.6 °F 60.8 °F 94% 29.85 in 3.0 mi ESE 11.5 mph - 0.05 in Rain Rain
9:21 AM 64.4 °F 60.8 °F 88% 29.85 in 5.0 mi East 8.1 mph - 0.08 in Rain Rain
9:52 AM 64.9 °F 62.1 °F 90% 29.85 in 10.0 mi ESE 9.2 mph - 0.09 in   Overcast
10:18 AM 64.4 °F 62.6 °F 94% 29.84 in 1.8 mi Calm Calm - N/A   Overcast
10:31 AM 64.4 °F 62.6 °F 94% 29.83 in 3.0 mi Calm Calm - N/A   Overcast
10:52 AM 66.0 °F 63.0 °F 90% 29.83 in 4.0 mi NNE 4.6 mph - N/A   Overcast
11:36 AM 66.2 °F 62.6 °F 88% 29.82 in 1.8 mi NE 5.8 mph - 0.00 in Rain Light Rain
11:52 AM 64.9 °F 62.1 °F 90% 29.82 in 2.0 mi NNE 6.9 mph - 0.00 in   Overcast
12:10 PM 64.4 °F 62.6 °F 94% 29.81 in 3.0 mi NNE 5.8 mph - N/A   Overcast
12:19 PM 66.2 °F 62.6 °F 88% 29.81 in 1.8 mi NNE 4.6 mph - N/A   Overcast
12:42 PM 66.2 °F 62.6 °F 88% 29.80 in 2.5 mi NE 3.5 mph - N/A   Overcast
12:52 PM 66.9 °F 64.0 °F 90% 29.79 in 2.5 mi NE 3.5 mph - N/A   Overcast
1:05 PM 68.0 °F 64.4 °F 88% 29.78 in 4.0 mi Calm Calm - N/A   Overcast
1:52 PM 69.1 °F 64.9 °F 87% 29.77 in 10.0 mi NW 3.5 mph - N/A   Overcast
3:07 PM 68.0 °F 64.4 °F 88% 29.77 in 2.0 mi North 5.8 mph - N/A   Overcast
3:16 PM 68.0 °F 64.4 °F 88% 29.77 in 1.5 mi North 5.8 mph - N/A   Overcast
3:52 PM 66.9 °F 64.0 °F 90% 29.76 in 1.5 mi NNW 5.8 mph - N/A   Overcast
4:01 PM 68.0 °F 64.4 °F 88% 29.76 in 3.0 mi North 6.9 mph - N/A   Overcast
4:26 PM 66.2 °F 62.6 °F 88% 29.76 in 2.5 mi North 6.9 mph - N/A   Overcast
4:36 PM 66.2 °F 62.6 °F 88% 29.76 in 4.0 mi North 6.9 mph - N/A   Overcast
4:52 PM 66.0 °F 63.0 °F 90% 29.76 in 9.0 mi North 8.1 mph - N/A   Overcast
5:52 PM 64.9 °F 62.1 °F 90% 29.78 in 2.5 mi North 8.1 mph - N/A   Overcast
6:52 PM 64.0 °F 61.0 °F 90% 29.79 in 4.0 mi NNE 5.8 mph - N/A   Overcast
7:52 PM 63.0 °F 60.1 °F 90% 29.80 in 6.0 mi North 5.8 mph - N/A   Overcast
8:52 PM 62.1 °F 60.1 °F 93% 29.81 in 3.0 mi Calm Calm - N/A   Overcast
9:52 PM 62.1 °F 59.0 °F 90% 29.82 in 4.0 mi North 3.5 mph - 0.01 in   Overcast
10:33 PM 62.6 °F 59.0 °F 88% 29.81 in 2.0 mi Calm Calm - N/A   Overcast
10:41 PM 62.6 °F 59.0 °F 88% 29.81 in 1.8 mi Calm Calm - N/A   Overcast
10:52 PM 62.1 °F 59.0 °F 90% 29.81 in 1.5 mi Calm Calm - N/A   Overcast
11:30 PM 60.8 °F 59.0 °F 94% 29.80 in 2.5 mi NNE 3.5 mph - N/A   Overcast
11:52 PM 61.0 °F 59.0 °F 93% 29.80 in 2.0 mi Calm Calm - N/A   Overcast